Inquirer Daily News

Weather

Get conditions and forecasts for any City, State, ZIP code or Country:  
Northeast Philadelphia, PA
on Sunday, November 25, 2012

Sunday
Previous Day Next Day
Daily Summary
 ActualAverage (KTTN)Record (KTTN)
Temperature
Mean Temperature °F 43°F  
Max Temperature 39°F 51°F 72°F (1979)
Min Temperature 28°F 35°F 19°F (2013)
Degree Days
Heating Degree Days 32 22  
Month to date heating degree days 462  
Since 1 July heating degree days 859  
Cooling Degree Days 0 0  
Month to date cooling degree days 0  
Year to date cooling degree days 965  
Moisture
Dew Point 20°F   
Average Humidity 55    
Maximum Humidity 72    
Minimum Humidity 46    
Precipitation
Precipitation 0.00 in 0.12 in 2.31 in (1950)
Month to date precipitation 2.65  
Year to date precipitation 42.08  
Wind
Wind Speed 11 mph   
Max Wind Speed 18 mph   
Max Gust Speed 24 mph   
Visibility 10 miles   
Events     

Key: T is trace of precipitation, MM is missing value
Source: NWS Daily Summary
Time(EST)TemperatureDew PointHumidity Pressure Visibility Wind DirectionWind SpeedGust SpeedPrecipitationEvents Conditions
12:54 AM 35.1°F 19.0°F 52% 29.94 in 10.0 miles West 15.0 mph 20.7 mph N/A   Clear
1:54 AM 35.1°F 19.0°F 52% 29.94 in 10.0 miles West 12.7 mph - N/A   Scattered Clouds
2:54 AM 34.0°F 19.0°F 54% 29.96 in 10.0 miles West 10.4 mph - N/A   Mostly Cloudy
3:54 AM 35.1°F 18.0°F 50% 29.97 in 10.0 miles West 11.5 mph 18.4 mph N/A   Partly Cloudy
4:54 AM 33.1°F 19.0°F 56% 29.97 in 10.0 miles West 5.8 mph - N/A   Scattered Clouds
5:54 AM 34.0°F 18.0°F 52% 29.97 in 10.0 miles West 4.6 mph - N/A   Clear
6:54 AM 35.1°F 19.0°F 52% 29.98 in 10.0 miles West 9.2 mph - N/A   Clear
7:54 AM 35.1°F 21.0°F 57% 29.99 in 10.0 miles West 10.4 mph - N/A   Partly Cloudy
8:54 AM 37.9°F 21.9°F 53% 29.99 in 10.0 miles West 11.5 mph - N/A   Partly Cloudy
9:54 AM 37.9°F 21.0°F 51% 30.00 in 10.0 miles West 12.7 mph 23.0 mph N/A   Mostly Cloudy
10:54 AM 39.0°F 21.0°F 49% 30.00 in 10.0 miles West 13.8 mph 23.0 mph N/A   Mostly Cloudy
11:54 AM 39.0°F 19.9°F 46% 29.98 in 10.0 miles West 13.8 mph 21.9 mph N/A   Mostly Cloudy
12:54 PM 39.0°F 19.9°F 46% 29.96 in 10.0 miles West 18.4 mph 24.2 mph N/A   Overcast
1:54 PM 39.0°F 21.0°F 49% 29.94 in 10.0 miles WSW 12.7 mph - N/A   Scattered Clouds
2:54 PM 37.0°F 21.0°F 52% 29.94 in 10.0 miles WSW 16.1 mph - N/A   Overcast
3:54 PM 37.0°F 21.0°F 52% 29.95 in 10.0 miles West 10.4 mph - N/A   Overcast
4:54 PM 35.1°F 21.0°F 57% 29.95 in 10.0 miles WSW 6.9 mph - N/A   Clear
5:54 PM 35.1°F 19.9°F 54% 29.97 in 10.0 miles WSW 8.1 mph - N/A   Clear
6:54 PM 35.1°F 21.0°F 57% 29.98 in 10.0 miles WSW 8.1 mph - N/A   Clear
7:54 PM 34.0°F 19.9°F 56% 29.99 in 10.0 miles WSW 8.1 mph - N/A   Clear
8:54 PM 34.0°F 19.9°F 56% 30.00 in 10.0 miles WSW 6.9 mph - N/A   Clear
9:54 PM 33.1°F 21.0°F 61% 30.00 in 10.0 miles Calm Calm - N/A   Clear
10:54 PM 28.9°F 21.0°F 72% 30.01 in 10.0 miles Calm Calm - N/A   Clear
11:54 PM 30.0°F 21.9°F 72% 30.01 in 10.0 miles Calm Calm - N/A   Clear
Astronomy
Sunrise:06:57 AM (EST) Moon Rise:02:52 PM (EST)11/25
Sunset:04:37 PM (EST) Moon Set:04:08 AM (EST)11/25
Moon Phase
Nov. 25 Nov. 28 Dec. 06 Dec. 13 Dec. 20

Copyright © 2014 The Weather Underground, Inc.